Las Vegas, NV

11:06 PM PST on January 20, 2017 (GMT -0800)
North Las Vegas Airport

Weather History for KVGT - September, 2012

Change the Weather History Date:

Sunday, September 2, 2012

  Actual Average Record
Temperature  
Mean Temperature 86 °F 86 °F  
Max Temperature 100 °F 98 °F 105 °F (2014)
Min Temperature 73 °F 74 °F 64 °F (2000)
Degree Days  
Heating Degree Days 0 0  
Month to date heating degree days 0  
Since 1 July heating degree days 0  
Cooling Degree Days 22 21  
Month to date cooling degree days 42  
Year to date cooling degree days 2688  
Growing Degree Days 36 (Base 50)    
Moisture  
Dew Point 25 °F    
Average Humidity 12    
Maximum Humidity 23    
Minimum Humidity 5    
Precipitation  
Precipitation 0.00 in 0.02 in 1.48 in (1954)
Month to date precipitation 0.04  
Year to date precipitation 3.64  
Sea Level Pressure  
Sea Level Pressure 29.88 in    
Wind  
Wind Speed 5 mph (West)    
Max Wind Speed 10 mph    
Max Gust Speed 16 mph    
Visibility 10 miles    
Events      
T = Trace of Precipitation, MM = Missing Value Source: NWS Daily Summary

Daily Weather History Graph

Daily Weather History Graph

Search for Another Location

Airport or City:

Trip Planner

Search our weather history database for the weather conditions in past years. The results will help you decide how hot, cold, wet, or windy it might be!

Date:

Astronomy

Sep. 02, 2012 Rise Set
Actual Time 6:13 AM PDT 7:06 PM PDT
Civil Twilight 5:47 AM PDT 7:32 PM PDT
Nautical Twilight 5:16 AM PDT 8:03 PM PDT
Astronomical Twilight 4:44 AM PDT 8:35 PM PDT
Moon 8:02 PM PDT (9/2) 8:20 AM PDT (9/2)
Length of Visible Light 13h 45m
Length of Day
12h 52m
Waning Gibbous, 95% of the Moon is Illuminated
Sep 2
Waning Gibbous
Sep 8
Last Quarter
Sep 15
New
Sep 22
First Quarter
Sep 29
Full

Hourly Weather History & Observations

Time (PDT) Temp. Dew Point Humidity Pressure Visibility Wind Dir Wind Speed Gust Speed Precip Events Conditions
12:53 AM 78.1 °F 25.0 °F 14% 29.89 in 10.0 mi NW 5.8 mph - N/A   Clear
1:53 AM 77.0 °F 27.0 °F 16% 29.88 in 10.0 mi WSW 4.6 mph - N/A   Clear
2:53 AM 77.0 °F 28.0 °F 17% 29.88 in 10.0 mi Calm Calm - N/A   Clear
3:53 AM 73.0 °F 28.9 °F 20% 29.88 in 10.0 mi North 8.1 mph - N/A   Clear
4:53 AM 73.0 °F 33.1 °F 23% 29.89 in 10.0 mi WSW 3.5 mph - N/A   Clear
5:53 AM 73.0 °F 30.9 °F 21% 29.90 in 10.0 mi WNW 6.9 mph - N/A   Clear
6:53 AM 73.0 °F 32.0 °F 22% 29.94 in 10.0 mi Calm Calm - N/A   Clear
7:53 AM 78.1 °F 30.9 °F 18% 29.95 in 10.0 mi Calm Calm - N/A   Clear
8:53 AM 84.0 °F 24.1 °F 11% 29.95 in 10.0 mi NNW 3.5 mph - N/A   Clear
9:53 AM 86.0 °F 24.1 °F 10% 29.96 in 10.0 mi Calm Calm - N/A   Clear
10:53 AM 91.0 °F 27.0 °F 10% 29.95 in 10.0 mi East 4.6 mph - N/A   Clear
11:53 AM 91.9 °F 39.0 °F 16% 29.94 in 10.0 mi Variable 4.6 mph - N/A   Clear
12:53 PM 93.0 °F 34.0 °F 12% 29.92 in 10.0 mi South 8.1 mph - N/A   Clear
1:53 PM 96.1 °F 28.9 °F 9% 29.89 in 10.0 mi Variable 4.6 mph - N/A   Clear
2:53 PM 98.1 °F 27.0 °F 8% 29.86 in 10.0 mi SSW 9.2 mph 16.1 mph N/A   Clear
3:53 PM 98.1 °F 30.9 °F 9% 29.83 in 10.0 mi ESE 5.8 mph - N/A   Clear
4:53 PM 100.0 °F 21.0 °F 6% 29.82 in 10.0 mi SSW 8.1 mph - N/A   Clear
5:53 PM 99.0 °F 19.9 °F 6% 29.81 in 10.0 mi WSW 10.4 mph - N/A   Clear
6:53 PM 97.0 °F 17.1 °F 5% 29.81 in 10.0 mi WSW 5.8 mph - N/A   Clear
7:53 PM 93.0 °F 14.0 °F 5% 29.82 in 10.0 mi West 6.9 mph - N/A   Clear
8:53 PM 90.0 °F 14.0 °F 6% 29.84 in 10.0 mi WSW 9.2 mph - N/A   Clear
9:53 PM 91.0 °F 10.9 °F 5% 29.86 in 10.0 mi Variable 5.8 mph - N/A   Clear
10:53 PM 82.9 °F 17.1 °F 9% 29.88 in 10.0 mi NW 4.6 mph - N/A   Clear
11:53 PM 80.1 °F 16.0 °F 9% 29.88 in 10.0 mi North 6.9 mph - N/A   Clear